sat.trackr.live / text

‹ back to catalog

STARLINK-1893

NORAD 46786 · 2020-074AZ

PAYLOAD ACTIVE UNKNOWN

§ Identity

Operator
Country
US
Launch date
2020-10-24
Launch site
AFETR
Launch vehicle
Mass (kg)
RCS (m²)

Purposes: comms

External: N2YO · Heavens-Above · Gunter

§ Orbital elements

Epoch: 2026-09-17T01:22:17.894784Z

Period
88.35 min
Inclination
53.0243°
Eccentricity
0.0010748
Mean motion
16.29844660 rev/d
Perigee alt
185.9 km
Apogee alt
200.0 km
Semi-major
6,571.1 km
B*
8.4292e-4
RAAN
34.4088°
Arg perigee
311.3127°
Mean anomaly
48.6989°
Rev number
32,759

§ Raw data

STARLINK-18931 46786U 20074AZ  26260.05715156  .03954834  12112-4  84292-3 0  99952 46786  53.0243  34.4088 0010748 311.3127  48.6989 16.29844660327591

JSON: /api/v1/satellites/46786 · /tle

For live sub-satellite position, see the globe view (requires WebGL).

§ Visibility from observer

Set your observer location to see the next 7 days of passes ≥ 10°. The values pass through the URL so the page stays shareable.

No JS? Fill the form by hand. The geolocation button needs JavaScript.